Location: ActonStarParty
(42.4766°N, 71.4538°W)
Time: 13:42:03
(UTC-04:00)

Cosmos 864 Rocket - Pass Details

Date: 19 April 2018
Orbit: 954 x 991 km, 82.9° (Epoch: 23 May)

Event Time Altitude Azimuth Distance (km) Brightness Sun altitude
Exits shadow 21:25:43 22° 171° (S) 1,960 5.7 -19.4°
Maximum altitude 21:29:48 68° 94° (E) 1,027 4.4 -20.0°
Drops below altitude 10° 21:35:53 10° 13° (NNE) 2,693 7.1 -20.9°
Sets 21:38:24 0° 11° (N) 3,645 7.9 -21.3°
